DW3201 Weather Reports


time (UTC)temp
F
wind
direction
speed
knots
gust
knots
rain 1hr
in
rain 24hr
in
rain mn
in
humidity
%
barometer
mb
20201130073600 33 329 3.5 8.7 0.00 0.00 0.00 68 1016.3
20201130072556 33 334 4.3 7.8 0.00 0.00 0.00 68 1016.3
20201130071555 34 332 3.5 7.0 0.00 0.00 0.00 68 1016.3
20201130070556 34 329 3.5 7.8 0.00 0.00 0.00 66 1016.3
20201130065554 34 323 3.5 7.8 0.00 0.00 0.00 67 1016.3
20201130064555 34 331 3.5 7.0 0.00 0.00 0.00 68 1016.3
20201130063552 34 329 3.5 6.1 0.00 0.00 0.00 68 1016.6
20201130062545 34 330 2.6 4.3 0.00 0.00 0.00 68 1016.3
20201130061545 34 321 1.7 6.1 0.00 0.00 0.00 68 1016.3
20201130060543 34 328 1.7 5.2 0.00 0.00 0.00 69 1016.6
20201130055529 34 338 3.5 5.2 0.00 0.00 0.00 68 1016.6
20201130054525 34 332 2.6 6.1 0.00 0.00 0.00 69 1016.6
20201130053524 34 323 4.3 6.1 0.00 0.00 0.00 69 1016.3
20201130052525 34 328 2.6 5.2 0.00 0.00 0.00 69 1016.3
20201130051526 34 324 2.6 5.2 0.00 0.00 0.00 70 1016.3
20201130050524 34 330 2.6 5.2 0.00 0.00 0.00 70 1015.9
20201130045521 34 322 1.7 4.3 0.00 0.00 0.00 71 1015.9
20201130044522 34 324 1.7 5.2 0.00 0.00 0.00 71 1015.9
20201130043518 33 325 2.6 7.8 0.00 0.00 0.00 70 1015.9
20201130042518 33 319 1.7 5.2 0.00 0.00 0.00 70 1015.9
20201130041515 34 323 2.6 5.2 0.00 0.00 0.00 69 1015.9
20201130040514 34 326 3.5 7.8 0.00 0.00 0.00 68 1015.9
20201130035517 34 325 3.5 5.2 0.00 0.00 0.00 67 1015.9
20201130034513 35 319 2.6 5.2 0.00 0.00 0.00 68 1015.9
20201130033517 35 317 2.6 6.1 0.00 0.00 0.00 67 1015.9
20201130032512 35 334 3.5 7.8 0.00 0.00 0.00 67 1015.9
20201130031518 35 326 2.6 7.8 0.00 0.00 0.00 67 1015.6
20201130030522 35 328 2.6 9.6 0.00 0.00 0.00 67 1015.6
20201130025510 35 324 3.5 5.2 0.00 0.00 0.00 67 1015.9
20201130024511 35 324 4.3 9.6 0.00 0.00 0.00 67 1015.6
20201130023514 35 323 2.6 6.1 0.00 0.00 0.00 66 1015.6
20201130022511 35 320 2.6 8.7 0.00 0.00 0.00 67 1015.6
20201130021521 36 333 5.2 9.6 0.00 0.00 0.00 66 1015.2
20201130020513 36 321 1.7 6.1 0.00 0.00 0.00 67 1015.2
20201130015510 36 320 2.6 6.1 0.00 0.00 0.00 66 1015.2
20201130014510 36 326 1.7 5.2 0.00 0.00 0.00 67 1015.2
20201130013501 36 324 3.5 6.1 0.00 0.00 0.00 65 1015.2
20201130012459 37 323 2.6 6.1 0.00 0.00 0.00 66 1015.6
20201130011459 37 315 2.6 9.6 0.00 0.00 0.00 67 1015.6
20201130010458 37 315 1.7 6.1 0.00 0.00 0.00 66 1015.6
20201130005457 37 318 1.7 9.6 0.00 0.00 0.00 65 1015.6
20201130004457 37 327 4.3 9.6 0.00 0.00 0.00 63 1015.6
20201130003457 38 329 2.6 8.7 0.00 0.00 0.00 64 1015.6
20201130002458 38 328 4.3 11.3 0.00 0.00 0.00 64 1015.6
20201130001455 38 322 2.6 8.7 0.00 0.00 0.00 65 1015.2
20201130000453 38 329 2.6 8.7 0.00 0.00 0.00 65 1014.9
20201129235452 38 327 3.5 6.1 0.00 0.00 0.00 65 1015.2
20201129234454 38 326 3.5 5.2 0.00 0.00 0.00 65 1015.2
20201129233451 39 322 2.6 10.4 0.00 0.00 0.00 65 1014.9
20201129232450 39 331 3.5 7.8 0.00 0.00 0.00 65 1014.9
20201129231449 39 324 3.5 5.2 0.00 0.00 0.00 66 1014.9
20201129230448 39 313 1.7 4.3 0.00 0.00 0.00 66 1014.9
20201129225449 39 319 2.6 6.1 0.00 0.00 0.00 65 1014.6
20201129224451 39 329 3.5 9.6 0.00 0.00 0.00 65 1014.6
20201129223445 40 318 1.7 4.3 0.00 0.00 0.00 66 1014.2
20201129222445 40 329 2.6 5.2 0.00 0.00 0.00 65 1014.2
20201129221444 40 315 1.7 9.6 0.00 0.00 0.00 65 1014.2
20201129220442 40 327 2.6 7.0 0.00 0.00 0.00 65 1014.2
20201129215441 41 313 1.7 4.3 0.00 0.00 0.00 66 1014.2
20201129214444 41 300 2.6 5.2 0.00 0.00 0.00 66 1013.9
20201129213439 42 320 2.6 5.2 0.00 0.00 0.00 66 1013.9
20201129212438 42 317 3.5 7.8 0.00 0.00 0.00 66 1013.5
20201129211439 43 309 1.7 5.2 0.00 0.00 0.00 65 1013.2
20201129210441 43 294 1.7 4.3 0.00 0.00 0.00 64 1012.9
20201129205435 44 321 1.7 5.2 0.00 0.00 0.00 62 1012.9
20201129204434 45 315 2.6 9.6 0.00 0.00 0.00 62 1012.5
20201129203434 45 326 2.6 5.2 0.00 0.00 0.00 62 1012.5
20201129202433 46 303 1.7 5.2 0.00 0.00 0.00 62 1012.5
20201129201432 46 317 0.9 4.3 0.00 0.00 0.00 62 1012.5
20201129200433 46 306 0.9 4.3 0.00 0.00 0.00 62 1012.5
20201129195432 47 317 0.9 5.2 0.00 0.00 0.00 61 1012.5
20201129194432 47 287 1.7 4.3 0.00 0.00 0.00 62 1012.5
20201129193431 47 308 1.7 4.3 0.00 0.00 0.00 61 1012.2
20201129192429 48 282 2.6 5.2 0.00 0.00 0.00 61 1012.2
20201129191428 48 284 1.7 5.2 0.00 0.00 0.00 59 1011.9
20201129190425 48 310 1.7 4.3 0.00 0.00 0.00 59 1011.9
20201129185424 48 303 1.7 5.2 0.00 0.00 0.00 60 1011.9
20201129184436 48 321 1.7 5.2 0.00 0.00 0.00 62 1011.9
20201129183423 48 292 1.7 4.3 0.00 0.00 0.00 62 1011.9
20201129182421 47 290 0.9 2.6 0.00 0.00 0.00 66 1011.9
20201129181421 47 281 1.7 4.3 0.00 0.00 0.00 64 1012.2
20201129180420 47 286 1.7 5.2 0.00 0.00 0.00 65 1011.9
20201129175418 46 282 0.9 3.5 0.00 0.00 0.00 66 1011.9
20201129174418 46 299 1.7 2.6 0.00 0.00 0.00 65 1011.9
20201129173415 46 291 1.7 3.5 0.00 0.00 0.00 66 1012.2
20201129172415 45 277 0.9 3.5 0.00 0.00 0.00 68 1012.2
20201129171413 44 288 1.7 2.6 0.00 0.00 0.00 68 1012.2
20201129170414 45 293 1.7 2.6 0.00 0.00 0.00 68 1012.5
20201129165411 45 301 1.7 4.3 0.00 0.00 0.00 67 1012.9
20201129164411 45 256 2.6 4.3 0.00 0.00 0.00 67 1012.9
20201129163410 45 267 1.7 5.2 0.00 0.00 0.00 67 1012.9
20201129162409 44 291 1.7 3.5 0.00 0.00 0.00 69 1012.9
20201129161408 44 262 0.9 3.5 0.00 0.00 0.00 69 1013.2
20201129160407 44 304 2.6 6.1 0.00 0.00 0.00 69 1012.9
20201129155408 44 290 1.7 5.2 0.00 0.00 0.00 69 1012.9
20201129154407 43 236 1.7 5.2 0.00 0.00 0.00 71 1013.2
20201129153411 43 220 2.6 7.8 0.00 0.00 0.00 71 1013.2
20201129152405 42 295 1.7 3.5 0.00 0.00 0.00 72 1013.2
20201129151407 41 207 1.7 5.2 0.00 0.00 0.00 74 1013.2
20201129150403 40 207 2.6 6.1 0.00 0.00 0.00 75 1013.2
20201129145408 40 270 1.7 7.0 0.00 0.00 0.00 76 1013.2
20201129144402 39 222 1.7 6.1 0.00 0.00 0.00 77 1013.5
20201129143400 38 241 1.7 3.5 0.00 0.00 0.00 78 1013.5
20201129142402 38 258 1.7 5.2 0.00 0.00 0.00 79 1013.5
20201129141359 37 203 1.7 5.2 0.00 0.00 0.00 81 1013.5
20201129140359 36 218 1.7 4.3 0.00 0.00 0.00 81 1013.2
20201129135356 36 211 1.7 3.5 0.00 0.00 0.00 82 1013.2
20201129134355 36 207 0.9 3.5 0.00 0.00 0.00 82 1013.2
20201129133354 36 202 1.7 4.3 0.00 0.00 0.00 82 1013.2
20201129132354 36 207 0.9 1.7 0.00 0.00 0.00 82 1013.2
20201129131353 36 254 0.9 1.7 0.00 0.00 0.00 82 1012.9
20201129130352 36 250 0.9 3.5 0.00 0.00 0.00 82 1013.2
20201129125350 36 221 1.7 3.5 0.00 0.00 0.00 82 1013.2
20201129124351 37 220 0.0 0.9 0.00 0.00 0.00 81 1013.5
20201129123349 37 269 0.0 3.5 0.00 0.00 0.00 80 1013.5
20201129122349 37 220 1.7 4.3 0.00 0.00 0.00 80 1013.2
20201129121350 37 194 2.6 3.5 0.00 0.00 0.00 80 1013.5
20201129120347 37 210 0.9 6.1 0.00 0.00 0.00 80 1013.2
20201129115346 37 202 0.9 2.6 0.00 0.00 0.00 80 1013.2
20201129114347 38 255 0.9 3.5 0.00 0.00 0.00 80 1013.2
20201129113345 38 213 0.9 3.5 0.00 0.00 0.00 80 1013.2
20201129112355 38 226 1.7 5.2 0.00 0.00 0.00 80 1013.5
20201129111342 38 87 1.7 4.3 0.00 0.00 0.00 80 1013.5
20201129110341 38 238 0.9 2.6 0.00 0.00 0.00 80 1013.5
20201129105341 37 218 0.9 2.6 0.00 0.00 0.00 81 1013.5
20201129104340 37 239 0.9 4.3 0.00 0.00 0.00 81 1013.2
20201129103338 37 218 0.9 5.2 0.00 0.00 0.00 81 1013.5
20201129102337 37 201 1.7 3.5 0.00 0.00 0.00 81 1013.5
20201129101336 37 204 0.9 3.5 0.00 0.00 0.00 81 1013.5
20201129100336 37 214 0.9 0.9 0.00 0.00 0.00 81 1013.2
20201129095335 38 205 0.9 3.5 0.00 0.00 0.00 81 1013.2
20201129094334 38 238 0.9 2.6 0.00 0.00 0.00 80 1013.5
20201129093333 38 210 1.7 5.2 0.00 0.00 0.00 80 1013.9
20201129092338 38 197 0.0 2.6 0.00 0.00 0.00 80 1013.9
20201129091333 38 222 0.9 1.7 0.00 0.00 0.00 80 1013.9
20201129090330 38 216 1.7 3.5 0.00 0.00 0.00 80 1013.9
20201129085329 38 243 1.7 3.5 0.00 0.00 0.00 79 1013.9
20201129084328 38 212 1.7 6.1 0.00 0.00 0.00 79 1013.9
20201129083331 38 218 1.7 4.3 0.00 0.00 0.00 80 1014.2
20201129082328 38 195 0.9 2.6 0.00 0.00 0.00 80 1014.2
20201129081327 38 192 0.9 5.2 0.00 0.00 0.00 79 1013.9
20201129080325 39 192 0.9 4.3 0.00 0.00 0.00 79 1013.9
20201129075324 39 185 0.9 3.5 0.00 0.00 0.00 78 1013.9
20201129074326 40 193 1.7 6.1 0.00 0.00 0.00 77 1013.9